This demonstration page uses our WeatherBlox Daily Observations layout. Learn more.

Left ArrowRight Arrow

Hourly Observations for March 24, 2020

Temp ( °F °C ) Dew Point ( °F °C ) Humidity (%) Winds ( mph kmh ) Pressure ( in mb ) Visibility ( mi km ) Precip ( " mm )
12:11 am 00:11 Cloudy 43 6 41 5 93 93 ESE 7 11 30.04 1017 10 16 0.00 0.00
12:56 am 00:56 Cloudy 45 7.3 42 5.4 88 88 ESE 9 15 30.03 1017 10 16 0.00 0.00
1:56 am 01:56 Mostly Cloudy 44 6.4 41 5 91 91 ESE 7 11 30.03 1017 10 16 0.00 0.00
2:26 am 02:26 Cloudy 45 7 43 6 93 93 E 6 9 30.03 1017 10 16 0.00 0.00
2:56 am 02:56 Cloudy 45 7.3 42 5.6 89 89 ESE 7 11 30.01 1016 10 16 0.00 0.00
3:56 am 03:56 Cloudy 45 7.4 42 5.5 88 88 ESE 8 13 29.98 1015 10 16 0.00 0.00
4:56 am 04:56 Cloudy 46 7.7 42 5.5 86 86 E 7 11 29.95 1014 10 16 0.00 0.00
5:26 am 05:26 Cloudy 46 8 41 5 82 82 E 8 13 29.96 1015 10 16 0.00 0.00
5:56 am 05:56 Cloudy 45 7.4 41 5.2 86 86 E 9 15 29.96 1014 10 16 0.00 0.00
6:41 am 06:41 Cloudy 45 7 41 5 87 87 E 7 11 29.96 1014 10 16 0.00 0.00
6:49 am 06:49 Cloudy 45 7 41 5 87 87 E 10 17 29.96 1014 10 16 0.00 0.00
6:56 am 06:56 Cloudy 44 6.9 41 5 88 88 E 9 15 29.96 1014 10 16 0.00 0.00
7:26 am 07:26 Cloudy 45 7 41 5 87 87 E 7 11 29.98 1015 10 16 0.00 0.00
7:56 am 07:56 Cloudy 44 6.8 41 4.8 87 87 E 9 15 29.98 1015 10 16 0.00 0.00
8:11 am 08:11 Cloudy 45 7 41 5 87 87 E 10 17 29.98 1015 10 16 0.00 0.00
8:41 am 08:41 Cloudy 45 7 41 5 87 87 E 6 9 29.98 1015 10 16 0.00 0.00
8:56 am 08:56 Cloudy 45 7.2 41 4.8 85 85 E 6 9 29.98 1015 10 16 0.00 0.00
9:26 am 09:26 Cloudy 46 8 41 5 82 82 ENE 7 11 29.98 1015 10 16 0.00 0.00
9:41 am 09:41 Cloudy 46 8 41 5 82 82 E 7 11 29.98 1015 10 16 0.00 0.00
9:56 am 09:56 Cloudy 46 7.7 41 4.8 82 82 E 10 17 29.98 1015 10 16 0.00 0.00
10:11 am 10:11 Cloudy 46 8 41 5 82 82 E 9 15 29.99 1016 10 16 0.00 0.00
10:56 am 10:56 Cloudy 46 7.9 41 4.8 81 81 E 9 15 30.01 1016 10 16 0.00 0.00
11:56 am 11:56 Cloudy 47 8.5 41 5.1 79 79 SE 10 17 29.99 1016 10 16 0.00 0.00
12:56 pm 12:56 Cloudy 49 9.2 42 5.4 77 77 SE 16 26 29.98 1015 10 16 0.00 0.00
1:56 pm 13:56 Cloudy 51 10.3 43 6.1 75 75 SE 14 22 29.96 1015 10 16 0.00 0.00
2:28 pm 14:28 Cloudy 54 12 45 7 72 72 SE 13 20 29.94 1014 10 16 0.00 0.00
2:56 pm 14:56 Cloudy 54 12 45 7.1 72 72 SSE 13 20 29.93 1014 10 16 0.00 0.00
3:56 pm 15:56 Cloudy 52 11 44 6.9 76 76 SSE 9 15 29.92 1013 10 16 0.00 0.00
4:26 pm 16:26 Cloudy 54 12 45 7 72 72 SE 8 13 29.91 1013 10 16 0.00 0.00
4:56 pm 16:56 Mostly Sunny 54 12.1 46 7.8 75 75 SE 10 17 29.90 1013 10 16 0.00 0.00
5:56 pm 17:56 Sunny 55 13 47 8.3 73 73 SE 10 17 29.88 1012 10 16 0.00 0.00
6:56 pm 18:56 Sunny 54 12.4 47 8.1 75 75 S 10 17 29.88 1012 10 16 0.00 0.00
7:56 pm 19:56 Clear 49 9.7 45 7.1 84 84 SSE 7 11 29.88 1012 10 16 0.00 0.00
8:56 pm 20:56 Mostly Clear 49 9.3 45 7.1 86 86 SSE 8 13 29.88 1012 10 16 0.00 0.00
9:56 pm 21:56 Partly Cloudy 48 9.1 45 7.4 89 89 SSE 7 11 29.88 1012 10 16 0.00 0.00
10:11 pm 22:11 Cloudy 48 9 45 7 87 87 S 7 11 29.88 1012 10 16 0.00 0.00
10:26 pm 22:26 Cloudy 50 10 46 8 88 88 S 10 17 29.89 1012 10 16 0.00 0.00
10:56 pm 22:56 Cloudy 50 10.2 47 8.3 88 88 S 7 11 29.89 1012 10 16 0.00 0.00
11:11 pm 23:11 Cloudy 50 10 46 8 88 88 S 3 6 29.88 1012 10 16 0.00 0.00
11:56 pm 23:56 Mostly Clear 49 9.4 46 7.7 89 89 S 6 9 29.88 1012 10 16 0.00 0.00

Powered by AerisWeather